AZU4360 SBSL-SBRF

Flight info

Callsign AZU4360
Flight time 2h 20m
Altitude 39000
Route KADOT DCT VULBU DCT POVPO DCT NEKAL DCT KIMOK
Aircraft A20N/M-SDE2E3FGHIRWXY/LB1

Departure

Time 2026-04-17 12:17
Airport Marechal Cunha Machado International Airport (SBSL)

Arrival

Time 2026-04-17 14:37
Airport Recife/Guararapes - Gilberto Freyre International Airport (SBRF)
Time Latitude Longitude Altitude Speed Heading
2026-04-17 11:55 -2.58471 -44.23736 175 ft 0 kts 340°
2026-04-17 12:09 -2.58481 -44.23732 175 ft 2 kts 340°
2026-04-17 12:09 -2.58497 -44.23727 175 ft 2 kts 340°
2026-04-17 12:09 -2.58512 -44.23721 175 ft 2 kts 348°
2026-04-17 12:10 -2.58528 -44.23720 175 ft 2 kts 43°
2026-04-17 12:10 -2.58538 -44.23734 175 ft 2 kts 73°
2026-04-17 12:10 -2.58539 -44.23738 175 ft 0 kts 74°
2026-04-17 12:12 -2.58520 -44.23682 175 ft 9 kts 69°
2026-04-17 12:12 -2.58497 -44.23618 175 ft 11 kts 70°
2026-04-17 12:12 -2.58470 -44.23542 175 ft 11 kts 70°
2026-04-17 12:12 -2.58443 -44.23469 175 ft 9 kts 71°
2026-04-17 12:13 -2.58469 -44.23410 175 ft 10 kts 128°
2026-04-17 12:13 -2.58526 -44.23399 175 ft 9 kts 208°
2026-04-17 12:13 -2.58608 -44.23461 175 ft 19 kts 218°
2026-04-17 12:13 -2.58705 -44.23540 175 ft 17 kts 219°
2026-04-17 12:14 -2.58798 -44.23614 175 ft 17 kts 219°
2026-04-17 12:14 -2.58898 -44.23695 175 ft 21 kts 218°
2026-04-17 12:14 -2.59024 -44.23796 175 ft 26 kts 218°
2026-04-17 12:14 -2.59175 -44.23917 175 ft 30 kts 219°
2026-04-17 12:15 -2.59349 -44.24058 175 ft 33 kts 219°
2026-04-17 12:15 -2.59531 -44.24205 175 ft 32 kts 218°
2026-04-17 12:15 -2.59637 -44.24301 175 ft 13 kts 238°
2026-04-17 12:15 -2.59673 -44.24347 175 ft 5 kts 198°
2026-04-17 12:16 -2.59679 -44.24323 175 ft 5 kts 50°
2026-04-17 12:16 -2.59658 -44.24306 175 ft 9 kts 38°
2026-04-17 12:16 -2.59458 -44.24144 175 ft 73 kts 38°
2026-04-17 12:16 -2.58890 -44.23687 176 ft 133 kts 39°
2026-04-17 12:17 -2.58085 -44.23045 579 ft 149 kts 39°
2026-04-17 12:17 -2.57250 -44.22360 1067 ft 166 kts 42°
2026-04-17 12:17 -2.56307 -44.21569 1481 ft 185 kts 42°
2026-04-17 12:17 -2.55425 -44.20584 1901 ft 200 kts 69°
2026-04-17 12:18 -2.55323 -44.19136 2255 ft 224 kts 100°
2026-04-17 12:18 -2.55742 -44.17554 2739 ft 245 kts 108°
2026-04-17 12:18 -2.56312 -44.15926 3548 ft 251 kts 109°
2026-04-17 12:18 -2.56899 -44.14268 4471 ft 253 kts 109°
2026-04-17 12:19 -2.57464 -44.12591 5360 ft 256 kts 108°
2026-04-17 12:19 -2.58006 -44.10882 6243 ft 259 kts 107°
2026-04-17 12:19 -2.58531 -44.09142 7132 ft 263 kts 106°
2026-04-17 12:19 -2.59046 -44.07371 8035 ft 267 kts 106°
2026-04-17 12:20 -2.59558 -44.05572 8864 ft 271 kts 105°
2026-04-17 12:20 -2.60070 -44.03742 9649 ft 275 kts 105°
2026-04-17 12:20 -2.60589 -44.01883 10367 ft 279 kts 105°
2026-04-17 12:20 -2.61116 -43.99999 11079 ft 283 kts 105°
2026-04-17 12:21 -2.61651 -43.98090 11791 ft 287 kts 105°
2026-04-17 12:21 -2.62195 -43.96157 12500 ft 291 kts 105°
2026-04-17 12:21 -2.62743 -43.94206 13131 ft 293 kts 104°
2026-04-17 12:21 -2.63297 -43.92228 13796 ft 297 kts 104°
2026-04-17 12:22 -2.63856 -43.90234 14402 ft 301 kts 104°
2026-04-17 12:22 -2.64419 -43.88224 15003 ft 305 kts 104°
2026-04-17 12:22 -2.64995 -43.86165 15640 ft 308 kts 104°
2026-04-17 12:22 -2.65573 -43.84093 16251 ft 311 kts 104°
2026-04-17 12:23 -2.66157 -43.81999 16882 ft 314 kts 104°
2026-04-17 12:23 -2.66749 -43.79883 17489 ft 317 kts 104°
2026-04-17 12:23 -2.67345 -43.77749 18095 ft 321 kts 104°
2026-04-17 12:23 -2.67950 -43.75585 18553 ft 327 kts 104°
2026-04-17 12:24 -2.68579 -43.73331 18665 ft 345 kts 104°
2026-04-17 12:24 -2.69240 -43.70964 18781 ft 361 kts 104°
2026-04-17 12:24 -2.69929 -43.68500 18961 ft 374 kts 104°
2026-04-17 12:24 -2.70638 -43.65971 19343 ft 380 kts 104°
2026-04-17 12:25 -2.71357 -43.63413 19792 ft 383 kts 104°
2026-04-17 12:25 -2.72098 -43.60840 20254 ft 387 kts 108°
2026-04-17 12:25 -2.73187 -43.58370 20708 ft 391 kts 118°
2026-04-17 12:25 -2.74737 -43.56132 21156 ft 394 kts 127°
2026-04-17 12:26 -2.76449 -43.53976 21599 ft 397 kts 127°
2026-04-17 12:26 -2.78171 -43.51806 22044 ft 400 kts 127°
2026-04-17 12:26 -2.79878 -43.49645 22464 ft 402 kts 127°
2026-04-17 12:26 -2.81634 -43.47413 22898 ft 405 kts 127°
2026-04-17 12:27 -2.83379 -43.45189 23318 ft 407 kts 127°
2026-04-17 12:27 -2.85135 -43.42952 23689 ft 410 kts 127°
2026-04-17 12:27 -2.86881 -43.40735 24030 ft 412 kts 127°
2026-04-17 12:27 -2.88683 -43.38451 24374 ft 414 kts 127°
2026-04-17 12:28 -2.90473 -43.36179 24705 ft 417 kts 127°
2026-04-17 12:28 -2.92249 -43.33922 25031 ft 420 kts 127°
2026-04-17 12:28 -2.94060 -43.31621 25382 ft 422 kts 127°
2026-04-17 12:28 -2.95876 -43.29314 25709 ft 424 kts 127°
2026-04-17 12:29 -2.97706 -43.26990 26058 ft 426 kts 127°
2026-04-17 12:29 -2.99545 -43.24656 26392 ft 428 kts 127°
2026-04-17 12:29 -3.01394 -43.22308 26704 ft 431 kts 127°
2026-04-17 12:29 -3.03255 -43.19947 27018 ft 433 kts 127°
2026-04-17 12:30 -3.05128 -43.17571 27308 ft 436 kts 127°
2026-04-17 12:30 -3.07005 -43.15187 27632 ft 438 kts 127°
2026-04-17 12:30 -3.08895 -43.12786 27930 ft 440 kts 127°
2026-04-17 12:30 -3.10795 -43.10371 28237 ft 442 kts 127°
2026-04-17 12:31 -3.12702 -43.07943 28547 ft 445 kts 127°
2026-04-17 12:31 -3.14617 -43.05507 28831 ft 447 kts 127°
2026-04-17 12:31 -3.16547 -43.03052 29132 ft 450 kts 128°
2026-04-17 12:31 -3.18489 -43.00584 29408 ft 453 kts 127°
2026-04-17 12:32 -3.20441 -42.98101 29697 ft 455 kts 127°
2026-04-17 12:32 -3.22403 -42.95607 29965 ft 457 kts 127°
2026-04-17 12:32 -3.24372 -42.93106 30203 ft 459 kts 128°
2026-04-17 12:32 -3.26352 -42.90587 30441 ft 461 kts 128°
2026-04-17 12:33 -3.28339 -42.88058 30676 ft 463 kts 128°
2026-04-17 12:33 -3.30332 -42.85517 30912 ft 465 kts 128°
2026-04-17 12:33 -3.32329 -42.82974 31154 ft 466 kts 128°
2026-04-17 12:33 -3.34339 -42.80418 31373 ft 468 kts 128°
2026-04-17 12:34 -3.36358 -42.77856 31662 ft 468 kts 128°
2026-04-17 12:34 -3.38377 -42.75295 31961 ft 469 kts 128°
2026-04-17 12:34 -3.40395 -42.72733 32272 ft 468 kts 128°
2026-04-17 12:34 -3.42405 -42.70182 32626 ft 467 kts 128°
2026-04-17 12:35 -3.44415 -42.67629 32981 ft 466 kts 128°
2026-04-17 12:35 -3.46416 -42.65078 33324 ft 465 kts 128°
2026-04-17 12:35 -3.48411 -42.62530 33678 ft 465 kts 128°
2026-04-17 12:35 -3.50400 -42.59992 34002 ft 464 kts 129°
2026-04-17 12:37 -3.64264 -42.42351 36103 ft 456 kts 129°
2026-04-17 12:37 -3.66223 -42.39858 36385 ft 455 kts 129°
2026-04-17 12:38 -3.68174 -42.37375 36638 ft 454 kts 130°
2026-04-17 12:38 -3.70090 -42.34860 36897 ft 454 kts 128°
2026-04-17 12:38 -3.71928 -42.32291 37159 ft 453 kts 126°
2026-04-17 12:38 -3.73684 -42.29721 37416 ft 453 kts 126°
2026-04-17 12:39 -3.75432 -42.27109 37672 ft 452 kts 126°
2026-04-17 12:39 -3.77180 -42.24498 37923 ft 451 kts 126°
2026-04-17 12:39 -3.78941 -42.21902 38171 ft 450 kts 127°
2026-04-17 12:39 -3.80714 -42.19325 38415 ft 449 kts 127°
2026-04-17 12:40 -3.82496 -42.16759 38618 ft 448 kts 127°
2026-04-17 12:40 -3.84278 -42.14205 38792 ft 448 kts 127°
2026-04-17 12:40 -3.86066 -42.11645 38879 ft 448 kts 127°
2026-04-17 12:41 -3.89635 -42.06520 38895 ft 448 kts 127°
2026-04-17 12:41 -3.93175 -42.01387 38896 ft 448 kts 127°
2026-04-17 12:42 -3.96719 -41.96247 38895 ft 449 kts 127°
2026-04-17 12:42 -4.00286 -41.91116 38897 ft 450 kts 127°
2026-04-17 12:43 -4.03861 -41.85968 38900 ft 450 kts 127°
2026-04-17 12:43 -4.07430 -41.80820 38897 ft 450 kts 127°
2026-04-17 12:44 -4.11005 -41.75660 38898 ft 451 kts 127°
2026-04-17 12:44 -4.13971 -41.71361 38894 ft 452 kts 127°
2026-04-17 12:45 -4.17554 -41.66175 38896 ft 453 kts 127°
2026-04-17 12:45 -4.21141 -41.60990 38901 ft 453 kts 127°
2026-04-17 12:46 -4.24740 -41.55801 38920 ft 453 kts 127°
2026-04-17 12:46 -4.28362 -41.50583 38917 ft 453 kts 127°
2026-04-17 12:47 -4.31933 -41.45418 38893 ft 454 kts 126°
2026-04-17 12:47 -4.35552 -41.40169 38901 ft 455 kts 127°
2026-04-17 12:48 -4.39133 -41.34988 38902 ft 456 kts 127°
2026-04-17 12:48 -4.42746 -41.29762 38916 ft 456 kts 127°
2026-04-17 12:49 -4.46358 -41.24537 38924 ft 456 kts 127°
2026-04-17 12:49 -4.49974 -41.19305 38935 ft 456 kts 127°
2026-04-17 12:50 -4.53590 -41.14081 38934 ft 456 kts 127°
2026-04-17 12:50 -4.57143 -41.08803 38933 ft 457 kts 124°
2026-04-17 12:51 -4.60398 -41.03329 38940 ft 458 kts 122°
2026-04-17 12:51 -4.63561 -40.97784 38922 ft 458 kts 122°
2026-04-17 12:52 -4.66779 -40.92275 38925 ft 458 kts 122°
2026-04-17 12:52 -4.70059 -40.86788 38935 ft 459 kts 123°
2026-04-17 12:53 -4.73352 -40.81302 38938 ft 459 kts 123°
2026-04-17 12:53 -4.76621 -40.75801 38938 ft 460 kts 122°
2026-04-17 12:54 -4.79881 -40.70288 38936 ft 460 kts 122°
2026-04-17 12:54 -4.83151 -40.64768 38942 ft 460 kts 122°
2026-04-17 12:55 -4.86429 -40.59248 38926 ft 461 kts 123°
2026-04-17 12:55 -4.89714 -40.53738 38921 ft 461 kts 123°
2026-04-17 12:56 -4.92990 -40.48214 38937 ft 461 kts 123°
2026-04-17 12:56 -4.96265 -40.42692 38911 ft 461 kts 123°
2026-04-17 12:57 -4.99527 -40.37187 38911 ft 462 kts 123°
2026-04-17 12:57 -5.02816 -40.31644 38914 ft 463 kts 123°
2026-04-17 12:58 -5.06108 -40.26086 38917 ft 463 kts 123°
2026-04-17 12:58 -5.09407 -40.20534 38919 ft 464 kts 122°
2026-04-17 12:59 -5.12701 -40.14963 38924 ft 464 kts 122°
2026-04-17 12:59 -5.16001 -40.09388 38935 ft 464 kts 122°
2026-04-17 13:00 -5.19300 -40.03821 38933 ft 464 kts 122°
2026-04-17 13:00 -5.22605 -39.98249 38925 ft 465 kts 122°
2026-04-17 13:01 -5.25909 -39.92677 38939 ft 465 kts 122°
2026-04-17 13:01 -5.29217 -39.87085 38920 ft 466 kts 122°
2026-04-17 13:02 -5.32527 -39.81480 38918 ft 467 kts 122°
2026-04-17 13:02 -5.35842 -39.75874 38918 ft 468 kts 122°
2026-04-17 13:03 -5.39167 -39.70254 38918 ft 468 kts 122°
2026-04-17 13:03 -5.42489 -39.64634 38919 ft 469 kts 122°
2026-04-17 13:04 -5.45811 -39.59000 38921 ft 469 kts 122°
2026-04-17 13:04 -5.49138 -39.53374 38922 ft 469 kts 122°
2026-04-17 13:05 -5.52468 -39.47739 38919 ft 469 kts 122°
2026-04-17 13:05 -5.55789 -39.42107 38920 ft 469 kts 122°
2026-04-17 13:06 -5.59116 -39.36469 38918 ft 469 kts 122°
2026-04-17 13:06 -5.62446 -39.30838 38914 ft 470 kts 122°
2026-04-17 13:07 -5.65782 -39.25194 38911 ft 470 kts 122°
2026-04-17 13:07 -5.69112 -39.19538 38910 ft 470 kts 122°
2026-04-17 13:08 -5.72441 -39.13888 38904 ft 470 kts 122°
2026-04-17 13:08 -5.75782 -39.08234 38905 ft 471 kts 122°
2026-04-17 13:09 -5.79346 -39.02729 38901 ft 470 kts 126°
2026-04-17 13:09 -5.83152 -38.97383 38900 ft 470 kts 127°
2026-04-17 13:10 -5.86964 -38.92048 38903 ft 471 kts 126°
2026-04-17 13:10 -5.90691 -38.86693 38903 ft 471 kts 126°
2026-04-17 13:11 -5.94406 -38.81283 38912 ft 471 kts 126°
2026-04-17 13:11 -5.98125 -38.75866 38906 ft 471 kts 126°
2026-04-17 13:12 -6.01855 -38.70463 38901 ft 471 kts 127°
2026-04-17 13:12 -6.07468 -38.62352 38901 ft 471 kts 126°
2026-04-17 13:13 -6.11200 -38.56938 38897 ft 472 kts 126°
2026-04-17 13:13 -6.14942 -38.51512 38901 ft 472 kts 126°
2026-04-17 13:14 -6.18684 -38.46091 38904 ft 472 kts 126°
2026-04-17 13:14 -6.22431 -38.40659 38904 ft 473 kts 126°
2026-04-17 13:15 -6.26180 -38.35223 38902 ft 473 kts 126°
2026-04-17 13:15 -6.29928 -38.29788 38905 ft 474 kts 126°
2026-04-17 13:16 -6.33684 -38.24340 38908 ft 474 kts 126°
2026-04-17 13:16 -6.37432 -38.18891 38909 ft 474 kts 125°
2026-04-17 13:17 -6.41184 -38.13433 38913 ft 475 kts 125°
2026-04-17 13:17 -6.44943 -38.07978 38913 ft 475 kts 125°
2026-04-17 13:18 -6.48706 -38.02512 38914 ft 475 kts 125°
2026-04-17 13:18 -6.52464 -37.97047 38917 ft 475 kts 125°
2026-04-17 13:19 -6.56234 -37.91577 38910 ft 476 kts 125°
2026-04-17 13:19 -6.60006 -37.86099 38910 ft 476 kts 125°
2026-04-17 13:20 -6.63770 -37.80615 38922 ft 477 kts 125°
2026-04-17 13:20 -6.67542 -37.75123 38921 ft 477 kts 125°
2026-04-17 13:21 -6.71307 -37.69631 38918 ft 477 kts 125°
2026-04-17 13:21 -6.75087 -37.64134 38918 ft 478 kts 125°
2026-04-17 13:22 -6.78861 -37.58635 38917 ft 478 kts 125°
2026-04-17 13:22 -6.82637 -37.53124 38918 ft 478 kts 125°
2026-04-17 13:23 -6.86417 -37.47623 38918 ft 478 kts 125°
2026-04-17 13:23 -6.90176 -37.42150 38918 ft 478 kts 125°
2026-04-17 13:24 -6.93956 -37.36643 38919 ft 479 kts 125°
2026-04-17 13:24 -6.97735 -37.31123 38927 ft 479 kts 125°
2026-04-17 13:25 -7.01509 -37.25601 38928 ft 478 kts 125°
2026-04-17 13:25 -7.05285 -37.20089 38926 ft 478 kts 125°
2026-04-17 13:26 -7.09068 -37.14572 38929 ft 479 kts 125°
2026-04-17 13:26 -7.12850 -37.09060 38935 ft 479 kts 125°
2026-04-17 13:27 -7.16631 -37.03537 38942 ft 479 kts 125°
2026-04-17 13:27 -7.20400 -36.98013 38942 ft 479 kts 125°
2026-04-17 13:28 -7.24179 -36.92485 38943 ft 479 kts 125°
2026-04-17 13:28 -7.27960 -36.86953 38943 ft 479 kts 125°
2026-04-17 13:29 -7.31085 -36.82381 38925 ft 470 kts 125°
2026-04-17 13:29 -7.32912 -36.79709 38927 ft 458 kts 125°
2026-04-17 13:29 -7.34816 -36.77171 38925 ft 452 kts 136°
2026-04-17 13:30 -7.37219 -36.75168 38929 ft 447 kts 152°
2026-04-17 13:30 -7.40022 -36.73882 38928 ft 441 kts 168°
2026-04-17 13:30 -7.43015 -36.73369 38929 ft 434 kts 183°
2026-04-17 13:30 -7.45984 -36.73620 38929 ft 427 kts 197°
2026-04-17 13:31 -7.48762 -36.74581 38929 ft 419 kts 211°
2026-04-17 13:31 -7.51188 -36.76158 38927 ft 412 kts 225°
2026-04-17 13:31 -7.53143 -36.78237 38929 ft 407 kts 238°
2026-04-17 13:31 -7.54542 -36.80684 38931 ft 401 kts 251°
2026-04-17 13:32 -7.55326 -36.83350 38926 ft 396 kts 264°
2026-04-17 13:32 -7.55477 -36.86102 38924 ft 392 kts 276°
2026-04-17 13:32 -7.55016 -36.88799 38921 ft 390 kts 288°
2026-04-17 13:32 -7.53975 -36.91317 38918 ft 390 kts 298°
2026-04-17 13:33 -7.51116 -36.95958 38921 ft 391 kts 304°
2026-04-17 13:33 -7.47920 -37.00406 38922 ft 392 kts 306°
2026-04-17 13:34 -7.44530 -37.04702 38918 ft 393 kts 317°
2026-04-17 13:34 -7.42330 -37.06348 38918 ft 396 kts 329°
2026-04-17 13:34 -7.39840 -37.07458 38917 ft 399 kts 341°
2026-04-17 13:35 -7.37102 -37.07989 38913 ft 404 kts 354°
2026-04-17 13:35 -7.34287 -37.07860 38910 ft 410 kts
2026-04-17 13:35 -7.31540 -37.07040 38907 ft 416 kts 21°
2026-04-17 13:35 -7.29029 -37.05557 38904 ft 423 kts 35°
2026-04-17 13:36 -7.26915 -37.03475 38892 ft 429 kts 49°
2026-04-17 13:36 -7.25356 -37.00902 38890 ft 435 kts 64°
2026-04-17 13:36 -7.24481 -36.97973 38889 ft 440 kts 80°
2026-04-17 13:36 -7.24364 -36.94887 38888 ft 444 kts 95°
2026-04-17 13:37 -7.25019 -36.91850 38894 ft 446 kts 111°
2026-04-17 13:37 -7.26378 -36.89049 38894 ft 446 kts 121°
2026-04-17 13:37 -7.29766 -36.83809 38899 ft 448 kts 126°
2026-04-17 13:38 -7.33465 -36.78742 38904 ft 449 kts 128°
2026-04-17 13:38 -7.35573 -36.76443 38903 ft 447 kts 143°
2026-04-17 13:38 -7.38158 -36.74748 38904 ft 442 kts 158°
2026-04-17 13:39 -7.41040 -36.73768 38902 ft 435 kts 174°
2026-04-17 13:39 -7.44023 -36.73570 38901 ft 426 kts 189°
2026-04-17 13:39 -7.46890 -36.74146 38898 ft 418 kts 204°
2026-04-17 13:39 -7.49476 -36.75408 38899 ft 410 kts 219°
2026-04-17 13:40 -7.51635 -36.77237 38891 ft 403 kts 232°
2026-04-17 13:40 -7.53267 -36.79499 38891 ft 397 kts 246°
2026-04-17 13:40 -7.54308 -36.82051 38894 ft 392 kts 258°
2026-04-17 13:40 -7.54731 -36.84741 38894 ft 389 kts 271°
2026-04-17 13:41 -7.54525 -36.87443 38897 ft 386 kts 283°
2026-04-17 13:41 -7.53709 -36.90013 38896 ft 386 kts 296°
2026-04-17 13:41 -7.50989 -36.94673 38898 ft 387 kts 304°
2026-04-17 13:42 -7.47838 -36.99101 38900 ft 390 kts 306°
2026-04-17 13:42 -7.44554 -37.03456 38902 ft 391 kts 313°
2026-04-17 13:43 -7.42475 -37.05218 38907 ft 393 kts 326°
2026-04-17 13:43 -7.40032 -37.06470 38907 ft 396 kts 338°
2026-04-17 13:43 -7.37339 -37.07114 38898 ft 401 kts 351°
2026-04-17 13:43 -7.34535 -37.07091 38896 ft 407 kts
2026-04-17 13:44 -7.31783 -37.06357 38897 ft 413 kts 19°
2026-04-17 13:44 -7.29259 -37.04940 38896 ft 421 kts 34°
2026-04-17 13:44 -7.27124 -37.02901 38886 ft 427 kts 49°
2026-04-17 13:44 -7.25549 -37.00343 38886 ft 434 kts 64°
2026-04-17 13:45 -7.24673 -36.97422 38882 ft 439 kts 80°
2026-04-17 13:45 -7.24583 -36.94348 38882 ft 443 kts 96°
2026-04-17 13:45 -7.25301 -36.91333 38883 ft 444 kts 112°
2026-04-17 13:45 -7.26710 -36.88567 38887 ft 444 kts 121°
2026-04-17 13:46 -7.30111 -36.83355 38895 ft 447 kts 126°
2026-04-17 13:46 -7.33772 -36.78332 38898 ft 448 kts 129°
2026-04-17 13:47 -7.35957 -36.76119 38892 ft 444 kts 146°
2026-04-17 13:47 -7.38591 -36.74548 38893 ft 439 kts 161°
2026-04-17 13:47 -7.41498 -36.73705 38893 ft 432 kts 176°
2026-04-17 13:47 -7.44470 -36.73651 38895 ft 424 kts 192°
2026-04-17 13:48 -7.47301 -36.74358 38891 ft 416 kts 207°
2026-04-17 13:48 -7.49808 -36.75735 38893 ft 408 kts 221°
2026-04-17 13:48 -7.51877 -36.77655 38892 ft 402 kts 235°
2026-04-17 13:48 -7.53403 -36.79981 38890 ft 396 kts 248°
2026-04-17 13:49 -7.54318 -36.82573 38893 ft 391 kts 261°
2026-04-17 13:49 -7.54604 -36.85280 38897 ft 388 kts 274°
2026-04-17 13:49 -7.54263 -36.87962 38893 ft 386 kts 286°
2026-04-17 13:49 -7.53321 -36.90479 38894 ft 385 kts 298°
2026-04-17 13:50 -7.50524 -36.95100 38894 ft 387 kts 304°
2026-04-17 13:50 -7.47364 -36.99509 38898 ft 389 kts 306°
2026-04-17 13:51 -7.44006 -37.03789 38903 ft 391 kts 316°
2026-04-17 13:51 -7.41827 -37.05433 38904 ft 393 kts 328°
2026-04-17 13:51 -7.39315 -37.06546 38900 ft 397 kts 341°
2026-04-17 13:52 -7.36588 -37.07027 38900 ft 402 kts 355°
2026-04-17 13:52 -7.33782 -37.06823 38898 ft 408 kts
2026-04-17 13:52 -7.31074 -37.05909 38896 ft 415 kts 23°
2026-04-17 13:52 -7.28640 -37.04314 38895 ft 422 kts 38°
2026-04-17 13:53 -7.26654 -37.02126 38883 ft 429 kts 53°
2026-04-17 13:53 -7.25261 -36.99455 38883 ft 435 kts 68°
2026-04-17 13:53 -7.24601 -36.96471 38883 ft 440 kts 84°
2026-04-17 13:53 -7.24747 -36.93389 38882 ft 443 kts 101°
2026-04-17 13:54 -7.27320 -36.87812 38886 ft 444 kts 125°
2026-04-17 13:54 -7.29083 -36.85253 38884 ft 445 kts 125°
2026-04-17 13:55 -7.34455 -36.77587 38891 ft 447 kts 133°
2026-04-17 13:55 -7.39501 -36.74166 38891 ft 436 kts 166°
2026-04-17 13:56 -7.45384 -36.73817 38888 ft 421 kts 197°
2026-04-17 13:56 -7.48124 -36.74752 38888 ft 413 kts 211°
2026-04-17 13:56 -7.50506 -36.76308 38887 ft 405 kts 226°
2026-04-17 13:57 -7.52404 -36.78368 38888 ft 399 kts 239°
2026-04-17 13:57 -7.53731 -36.80791 38887 ft 393 kts 252°
2026-04-17 13:57 -7.54521 -36.86127 38889 ft 386 kts 278°
2026-04-17 13:58 -7.53986 -36.88764 38886 ft 384 kts 290°
2026-04-17 13:58 -7.51518 -36.93522 38889 ft 385 kts 302°
2026-04-17 13:58 -7.50033 -36.95730 38890 ft 386 kts 305°
2026-04-17 13:59 -7.45264 -37.02312 38896 ft 388 kts 307°
2026-04-17 13:59 -7.43401 -37.04275 38896 ft 390 kts 320°
2026-04-17 14:00 -7.41125 -37.05780 38776 ft 394 kts 332°
2026-04-17 14:00 -7.38546 -37.06712 38546 ft 395 kts 345°
2026-04-17 14:00 -7.35806 -37.06983 38511 ft 399 kts 359°
2026-04-17 14:00 -7.33042 -37.06587 38523 ft 406 kts 12°
2026-04-17 14:01 -7.30404 -37.05512 38521 ft 414 kts 26°
2026-04-17 14:01 -7.28075 -37.03777 38522 ft 421 kts 41°
2026-04-17 14:01 -7.26235 -37.01453 38515 ft 429 kts 57°
2026-04-17 14:01 -7.25025 -36.98694 38521 ft 436 kts 72°
2026-04-17 14:02 -7.24561 -36.95664 38510 ft 441 kts 88°
2026-04-17 14:02 -7.24914 -36.92590 38521 ft 445 kts 105°
2026-04-17 14:02 -7.26069 -36.89704 38524 ft 446 kts 120°
2026-04-17 14:03 -7.29366 -36.84412 38522 ft 447 kts 126°
2026-04-17 14:03 -7.33011 -36.79319 38360 ft 455 kts 123°
2026-04-17 14:03 -7.34432 -36.76438 38001 ft 465 kts 108°
2026-04-17 14:04 -7.35442 -36.73324 37224 ft 470 kts 108°
2026-04-17 14:04 -7.36490 -36.70194 36468 ft 473 kts 109°
2026-04-17 14:04 -7.37580 -36.67046 35585 ft 479 kts 109°
2026-04-17 14:04 -7.38695 -36.63882 34975 ft 478 kts 109°
2026-04-17 14:05 -7.39805 -36.60733 34373 ft 476 kts 109°
2026-04-17 14:05 -7.40905 -36.57595 33738 ft 476 kts 109°
2026-04-17 14:05 -7.41994 -36.54456 33111 ft 473 kts 109°
2026-04-17 14:05 -7.43067 -36.51335 32503 ft 470 kts 109°
2026-04-17 14:06 -7.44128 -36.48229 31893 ft 467 kts 109°
2026-04-17 14:06 -7.45182 -36.45147 31301 ft 465 kts 109°
2026-04-17 14:06 -7.46236 -36.42075 30709 ft 463 kts 109°
2026-04-17 14:06 -7.47284 -36.39017 30123 ft 460 kts 109°
2026-04-17 14:07 -7.48312 -36.36014 29498 ft 458 kts 109°
2026-04-17 14:07 -7.49358 -36.32963 28923 ft 453 kts 109°
2026-04-17 14:07 -7.50381 -36.29979 28386 ft 448 kts 109°
2026-04-17 14:07 -7.51380 -36.27067 27855 ft 443 kts 109°
2026-04-17 14:08 -7.52381 -36.24147 27334 ft 438 kts 108°
2026-04-17 14:08 -7.53374 -36.21258 26817 ft 434 kts 108°
2026-04-17 14:08 -7.54353 -36.18405 26319 ft 429 kts 108°
2026-04-17 14:08 -7.55324 -36.15575 25822 ft 425 kts 108°
2026-04-17 14:09 -7.56281 -36.12771 25299 ft 421 kts 107°
2026-04-17 14:09 -7.57231 -36.09991 24782 ft 418 kts 107°
2026-04-17 14:09 -7.58175 -36.07240 24304 ft 413 kts 107°
2026-04-17 14:09 -7.59108 -36.04519 23775 ft 411 kts 107°
2026-04-17 14:10 -7.60033 -36.01819 23396 ft 404 kts 107°
2026-04-17 14:10 -7.60942 -35.99154 22839 ft 400 kts 107°
2026-04-17 14:10 -7.61842 -35.96522 22325 ft 396 kts 107°
2026-04-17 14:10 -7.62739 -35.93912 21831 ft 392 kts 107°
2026-04-17 14:11 -7.63625 -35.91327 21380 ft 388 kts 107°
2026-04-17 14:11 -7.64503 -35.88768 20903 ft 384 kts 107°
2026-04-17 14:11 -7.65372 -35.86231 20441 ft 381 kts 107°
2026-04-17 14:11 -7.66229 -35.83722 19998 ft 377 kts 107°
2026-04-17 14:12 -7.67078 -35.81231 19576 ft 373 kts 107°
2026-04-17 14:12 -7.67918 -35.78765 19147 ft 370 kts 107°
2026-04-17 14:12 -7.68753 -35.76318 18715 ft 368 kts 107°
2026-04-17 14:13 -7.70398 -35.71488 17891 ft 361 kts 107°
2026-04-17 14:13 -7.71209 -35.69104 17394 ft 359 kts 108°
2026-04-17 14:13 -7.72017 -35.66729 16878 ft 357 kts 107°
2026-04-17 14:13 -7.72573 -35.64307 16422 ft 353 kts 95°
2026-04-17 14:14 -7.72567 -35.61860 15988 ft 348 kts 84°
2026-04-17 14:14 -7.72351 -35.59428 15509 ft 348 kts 84°
2026-04-17 14:14 -7.72140 -35.57002 15066 ft 346 kts 84°
2026-04-17 14:14 -7.71933 -35.54593 14662 ft 343 kts 84°
2026-04-17 14:15 -7.71727 -35.52198 14232 ft 342 kts 84°
2026-04-17 14:15 -7.71522 -35.49819 13817 ft 340 kts 84°
2026-04-17 14:15 -7.71319 -35.47451 13394 ft 338 kts 84°
2026-04-17 14:15 -7.71117 -35.45097 12921 ft 336 kts 84°
2026-04-17 14:16 -7.70914 -35.42757 12497 ft 333 kts 84°
2026-04-17 14:16 -7.70780 -35.41223 12229 ft 331 kts 84°
2026-04-17 14:16 -7.70579 -35.38919 11813 ft 329 kts 84°
2026-04-17 14:16 -7.70454 -35.36655 11659 ft 318 kts 93°
2026-04-17 14:17 -7.70948 -35.34530 11535 ft 309 kts 112°
2026-04-17 14:17 -7.72602 -35.32280 11380 ft 299 kts 138°
2026-04-17 14:17 -7.74370 -35.31232 11250 ft 293 kts 158°
2026-04-17 14:17 -7.75691 -35.30892 11170 ft 289 kts 171°
2026-04-17 14:18 -7.77674 -35.30934 11058 ft 283 kts 190°
2026-04-17 14:18 -7.79498 -35.31594 10941 ft 276 kts 209°
2026-04-17 14:18 -7.80922 -35.32696 10887 ft 267 kts 226°
2026-04-17 14:18 -7.81930 -35.34095 10890 ft 258 kts 243°
2026-04-17 14:19 -7.82527 -35.35783 10894 ft 255 kts 259°
2026-04-17 14:19 -7.82804 -35.37544 10894 ft 253 kts 264°
2026-04-17 14:19 -7.82972 -35.39298 10891 ft 253 kts 266°
2026-04-17 14:19 -7.83105 -35.41071 10893 ft 254 kts 267°
2026-04-17 14:20 -7.83232 -35.42843 10894 ft 254 kts 266°
2026-04-17 14:20 -7.83368 -35.44595 10895 ft 256 kts 266°
2026-04-17 14:20 -7.83446 -35.46359 10891 ft 254 kts 275°
2026-04-17 14:20 -7.83106 -35.48120 10895 ft 252 kts 292°
2026-04-17 14:21 -7.82328 -35.49666 10897 ft 250 kts 309°
2026-04-17 14:21 -7.81151 -35.50933 10895 ft 246 kts 325°
2026-04-17 14:21 -7.79690 -35.51806 10892 ft 243 kts 341°
2026-04-17 14:21 -7.78069 -35.52233 10895 ft 240 kts 356°
2026-04-17 14:22 -7.76409 -35.52202 10892 ft 239 kts 11°
2026-04-17 14:22 -7.74826 -35.51721 10891 ft 237 kts 27°
2026-04-17 14:22 -7.73439 -35.50837 10891 ft 235 kts 42°
2026-04-17 14:22 -7.72343 -35.49627 10892 ft 234 kts 56°
2026-04-17 14:23 -7.71601 -35.48168 10897 ft 236 kts 71°
2026-04-17 14:23 -7.71230 -35.46561 10896 ft 236 kts 81°
2026-04-17 14:23 -7.71037 -35.44924 10890 ft 235 kts 84°
2026-04-17 14:23 -7.70901 -35.43294 10889 ft 236 kts 85°
2026-04-17 14:24 -7.70778 -35.41639 10889 ft 237 kts 84°
2026-04-17 14:24 -7.70651 -35.39986 10889 ft 236 kts 84°
2026-04-17 14:24 -7.70519 -35.38342 10889 ft 235 kts 84°
2026-04-17 14:24 -7.70379 -35.36676 10818 ft 253 kts 84°
2026-04-17 14:25 -7.70213 -35.34762 10478 ft 285 kts 84°
2026-04-17 14:25 -7.70042 -35.32767 10131 ft 285 kts 84°
2026-04-17 14:25 -7.69873 -35.30776 9756 ft 285 kts 84°
2026-04-17 14:25 -7.69703 -35.28789 9348 ft 284 kts 84°
2026-04-17 14:26 -7.69532 -35.26811 8965 ft 282 kts 85°
2026-04-17 14:26 -7.69362 -35.24854 8614 ft 279 kts 85°
2026-04-17 14:26 -7.69191 -35.22906 8210 ft 279 kts 85°
2026-04-17 14:26 -7.69020 -35.20963 7840 ft 277 kts 86°
2026-04-17 14:27 -7.68851 -35.19039 7502 ft 274 kts 86°
2026-04-17 14:27 -7.68685 -35.17154 7118 ft 273 kts 86°
2026-04-17 14:27 -7.68519 -35.15245 6719 ft 273 kts 87°
2026-04-17 14:27 -7.68356 -35.13346 6371 ft 270 kts 87°
2026-04-17 14:28 -7.68194 -35.11471 5944 ft 269 kts 87°
2026-04-17 14:28 -7.68144 -35.09595 5515 ft 266 kts 100°
2026-04-17 14:28 -7.68735 -35.07864 5086 ft 262 kts 123°
2026-04-17 14:28 -7.69941 -35.06527 4716 ft 257 kts 145°
2026-04-17 14:29 -7.71535 -35.05760 4354 ft 254 kts 161°
2026-04-17 14:29 -7.73212 -35.05219 3958 ft 252 kts 162°
2026-04-17 14:29 -7.74885 -35.04685 3568 ft 252 kts 162°
2026-04-17 14:29 -7.76560 -35.04150 3194 ft 252 kts 162°
2026-04-17 14:30 -7.78223 -35.03618 2976 ft 250 kts 161°
2026-04-17 14:30 -7.79885 -35.03083 2978 ft 252 kts 161°
2026-04-17 14:30 -7.81552 -35.02547 2980 ft 251 kts 162°
2026-04-17 14:30 -7.83179 -35.02023 2981 ft 237 kts 162°
2026-04-17 14:31 -7.84692 -35.01536 2988 ft 220 kts 161°
2026-04-17 14:31 -7.86095 -35.01085 2987 ft 205 kts 161°
2026-04-17 14:31 -7.87438 -35.00646 2988 ft 202 kts 161°
2026-04-17 14:31 -7.88753 -35.00212 2993 ft 201 kts 161°
2026-04-17 14:32 -7.90074 -34.99774 2983 ft 196 kts 161°
2026-04-17 14:32 -7.91327 -34.99360 3002 ft 186 kts 160°
2026-04-17 14:32 -7.92551 -34.98954 3004 ft 185 kts 161°
2026-04-17 14:32 -7.93767 -34.98551 2997 ft 184 kts 160°
2026-04-17 14:33 -7.94989 -34.98143 2992 ft 185 kts 161°
2026-04-17 14:33 -7.96214 -34.97735 2981 ft 185 kts 161°
2026-04-17 14:33 -7.97404 -34.97342 2845 ft 176 kts 160°
2026-04-17 14:33 -7.98556 -34.96962 2630 ft 172 kts 160°
2026-04-17 14:34 -7.99682 -34.96591 2421 ft 168 kts 160°
2026-04-17 14:34 -8.00786 -34.96227 2208 ft 165 kts 160°
2026-04-17 14:34 -8.01860 -34.95873 2002 ft 159 kts 161°
2026-04-17 14:34 -8.02885 -34.95535 1809 ft 150 kts 161°
2026-04-17 14:35 -8.03853 -34.95216 1616 ft 143 kts 161°
2026-04-17 14:35 -8.04779 -34.94910 1432 ft 138 kts 161°
2026-04-17 14:35 -8.05691 -34.94610 1258 ft 137 kts 161°
2026-04-17 14:35 -8.06598 -34.94311 1072 ft 137 kts 161°
2026-04-17 14:36 -8.07504 -34.94012 908 ft 137 kts 161°
2026-04-17 14:36 -8.08404 -34.93716 774 ft 137 kts 161°
2026-04-17 14:36 -8.09320 -34.93416 571 ft 140 kts 161°
2026-04-17 14:36 -8.10246 -34.93108 373 ft 141 kts 160°
2026-04-17 14:37 -8.11161 -34.92805 157 ft 138 kts 160°
2026-04-17 14:37 -8.12054 -34.92508 43 ft 127 kts 161°
2026-04-17 14:37 -8.12749 -34.92280 40 ft 81 kts 161°
2026-04-17 14:37 -8.13085 -34.92169 40 ft 22 kts 162°
2026-04-17 14:38 -8.13205 -34.92110 40 ft 15 kts 140°
2026-04-17 14:38 -8.13259 -34.92052 40 ft 11 kts 132°
2026-04-17 14:38 -8.13303 -34.92003 40 ft 8 kts 132°
2026-04-17 14:38 -8.13343 -34.91960 39 ft 8 kts 132°
2026-04-17 14:39 -8.13376 -34.91929 39 ft 4 kts 141°
2026-04-17 14:39 -8.13379 -34.91901 39 ft 4 kts 71°
2026-04-17 14:39 -8.13371 -34.91876 39 ft 3 kts 72°
2026-04-17 14:39 -8.13365 -34.91857 39 ft 3 kts 72°
2026-04-17 14:40 -8.13360 -34.91842 38 ft 2 kts 71°
2026-04-17 14:40 -8.13359 -34.91838 38 ft 0 kts 71°